Regional Weather Roundup
Issued by NWS

Home | Current Version | Previous Version | Graphics & Text | Print | Product List | Glossary On
Versions: 1 2 3 4 5 6 7 8 9 10 11 12 13 14 15 16 17 18 19 20 21 22 23 24 25 26 27
000
ASUS45 KTFX 252210
RWRMT
MONTANA REGIONAL WEATHER ROUNDUP
NATIONAL WEATHER SERVICE GREAT FALLS MT
400 PM MDT WED MAY 25 2016

NOTE: "FAIR" INDICATES FEW OR NO CLOUDS BELOW 12000 FEET WITH NO
SIGNIFICANT WEATHER AND/OR OBSTRUCTIONS TO VISIBILITY.

MTZ001>007-043-252300-
WEST OF THE DIVIDE

CITY           SKY/WX    TMP DP  RH WIND       PRES   REMARKS
KALISPELL      MOSUNNY   66  47  50 S10       29.92F
MISSOULA       PTSUNNY   65  43  44 NW15      29.98S
BUTTE          MOSUNNY   58  30  34 NW18G24   29.98F
MULLAN PASS    PTSUNNY   51  41  68 NW8G18    30.07F
ANACONDA         N/A     61  32  33 W14G21    29.97F
DEER LODGE       N/A     63  36  36 W13       29.97F
EUREKA           N/A     66  45  45 SW7       29.91S
HAMILTON         N/A     64  34  32 NE7       29.98F
LIBBY            N/A     70  39  32 W6        29.93F
$$

MTZ008-052>055-252300-
SOUTHWEST MONTANA

CITY           SKY/WX    TMP DP  RH WIND       PRES   REMARKS
BOZEMAN        SUNNY     64  34  32 W12       29.92F
DILLON         MOSUNNY   61  31  32 SW5       29.95F
ENNIS          MOSUNNY   61  36  39 VRB6      30.00F
$$

MTZ009-010-012-014-046-048-049-054-252300-
EAST SLOPES AND CENTRAL MONTANA

CITY           SKY/WX    TMP DP  RH WIND       PRES   REMARKS
CUT BANK         N/A     67  40  37 N14       29.86S
GREAT FALLS    CLOUDY    59  42  53 NW14      29.88R
MALMSTROM AFB  MOSUNNY   63  43  48 NW10      29.87R
HELENA         MOSUNNY   68  38  33 W29G35    29.89F
CHOTEAU          N/A     57  46  67 NW10      29.90R
$$

MTZ011-013-016-021-045-047-050-051-252300-
NORTH CENTRAL MONTANA

CITY           SKY/WX    TMP DP  RH WIND       PRES   REMARKS
HAVRE            N/A    N/A N/A N/A MISG      29.86R
LEWISTOWN      SUNNY     64  41  42 E7        29.86F
N BAR RANCH      N/A     55  39  54 E8        29.89F
CHINOOK          N/A     48  43  81 CALM      29.88R VSB 3/4
$$

MTZ017>020-022>027-061-062-252300-
NORTHEAST MONTANA

CITY           SKY/WX    TMP DP  RH WIND       PRES   REMARKS
GLASGOW        CLOUDY    66  43  43 N7        29.83F
JORDAN           N/A     58  43  57 NW25G36   29.84R
SIDNEY         CLOUDY    61  46  59 N9        29.83F
WOLF POINT     CLOUDY    63  46  54 E3        29.84F
PLENTYWOOD       N/A     59  48  67 N12G17    29.84S
POPLAR           N/A     61  45  55 NW6       29.84F
$$

MTZ028>42-056>058-252300-
SOUTHCENTRAL AND SOUTHEAST MONTANA

CITY           SKY/WX    TMP DP  RH WIND       PRES   REMARKS
BAKER          MOSUNNY   65  43  44 NW10      29.86F
BILLINGS       MOSUNNY   69  38  32 NW6       29.86F
LIVINGSTON     PTSUNNY   65  30  27 W18G24    29.90F
MILES CITY     PTSUNNY   65  47  52 E7        29.83F
FORSYTH          N/A     63  46  55 S7        29.84F
$$

REGIONAL REPORTS...DAKOTAS

CITY           SKY/WX    TMP DP  RH WIND       PRES   REMARKS
WILLISTON      CLOUDY    57  48  72 NW15      29.82F
MINOT          CLOUDY    67  58  72 E10       29.75F
DICKINSON      CLOUDY    57  45  64 NW18      29.80F
BEACH            N/A     57  45  62 NW13G18   29.88S
CROSBY         RAIN      54  54 100 NW12      29.82F
WATFORD CITY   CLOUDY    55  50  82 NW14      29.82S
BISMARCK       CLOUDY    69  56  62 NE7       29.74S
GRAND FORKS    LGT RAIN  61  59  93 E16       29.69F FOG
FARGO          PTSUNNY   67  62  84 W18       29.69R
BUFFALO SD       N/A     64  43  46 NW16G24   29.79F
RAPID CITY     SUNNY     66  48  52 N14       29.87S
$$

REGIONAL REPORTS...WYOMING/IDAHO/WASHINGTON

CITY           SKY/WX    TMP DP  RH WIND       PRES   REMARKS
GILLETTE       CLOUDY    57  42  57 NW22G28   29.93R
SHERIDAN       CLOUDY    54  48  80 S5        29.92F
BUFFALO WY     LGT RAIN  52  44  74 NW8       29.96S
CODY           PTSUNNY   57  41  54 N14       29.93R
YELLOWSTONE LA   N/A     41  36  82 VRB6G17   30.09S
IDAHO FALLS    TSTM      51  41  68 W17G26    30.03R
SALMON         SUNNY     64  36  34 CALM      29.95F
BOISE          PTSUNNY   71  40  32 N17       29.98S
SPOKANE        PTSUNNY   69  42  37 SW15      30.00S
$$

REGIONAL REPORTS...ALBERTA

CITY           SKY/WX    TMP DP  RH WIND       PRES   REMARKS
EDMONTON       MOSUNNY   70  45  40 CALM      29.82S
CALGARY        PTSUNNY   68  41  37 VRB2      29.86R
LETHBRIDGE     MOSUNNY   64  39  39 VRB7      29.86F
MEDICINE HAT   PTSUNNY   64  43  45 NE13      29.86S
WATERTON GATE    N/A     52  45  76 W12G22      N/A
CARDSTON         N/A     66  41  39 N10         N/A
MILK RIVER       N/A     63  39  42 N9          N/A
$$

REGIONAL REPORTS...SASKATCHEWAN

CITY           SKY/WX    TMP DP  RH WIND       PRES   REMARKS
SWIFT CURRENT  MOSUNNY   61  45  55 N8        29.84F
REGINA         LGT RAIN  54  50  87 NE10      29.86F
SASKATOON      PTSUNNY   68  48  49 NE12G17   29.87F
CYPRESS HILLS    N/A     54  39  58 NE7         N/A
VAL MARIE        N/A     61  46  59 W15         N/A
ROCKGLEN         N/A     57  45  62 S5          N/A
ASSINIBOIA       N/A     72  43  35 SE6         N/A
$$




USA.gov is the U.S. government's official web portal to all federal, state and local government web resources and services.